Radiation Dose at Monitoring Post of Fukushima Daini Nuclear Power Station
Date,Time,MP-1(microSv/h),MP-2(microSv/h),MP-3(microSv/h),MP-4(microSv/h),MP-5(microSv/h),MP-6(microSv/h),MP-7(microSv/h),Wind Direction,Wind Velocity(m/s),Rain
2012/12/15,00:00,1.1,0.7,1.1,1.0,1.0,0.5,0.4,west,5.2,No
2012/12/15,00:10,1.1,0.7,1.1,1.0,1.0,0.5,0.4,west,4.8,No
2012/12/15,00:20,1.1,0.7,1.1,1.0,1.0,0.5,0.4,west-northwest,3.4,No
2012/12/15,00:30,1.1,0.7,1.1,1.0,1.0,0.5,0.4,south,1.0,No
2012/12/15,00:40,1.1,0.8,1.1,1.0,1.0,0.5,0.4,-,CALM,No
2012/12/15,00:50,1.1,0.7,1.1,1.0,1.0,0.5,0.4,west,1.5,No
2012/12/15,01:00,1.1,0.7,1.1,1.0,1.0,0.5,0.4,west,2.1,No
2012/12/15,01:10,1.1,0.7,1.1,1.0,1.0,0.5,0.4,west,1.3,No
2012/12/15,01:20,1.1,0.8,1.1,1.0,1.0,0.5,0.4,west,1.9,No
2012/12/15,01:30,1.1,0.7,1.1,1.0,1.0,0.5,0.4,southwest,1.4,No
2012/12/15,01:40,1.1,0.7,1.1,1.0,1.0,0.5,0.4,west-southwest,1.9,No
2012/12/15,01:50,1.1,0.8,1.1,1.0,1.0,0.5,0.4,west-southwest,1.7,No
2012/12/15,02:00,1.1,0.7,1.1,1.0,1.0,0.5,0.4,west,1.5,No
2012/12/15,02:10,1.1,0.7,1.1,1.0,1.0,0.5,0.4,west-northwest,0.8,No
2012/12/15,02:20,1.1,0.7,1.1,1.0,1.0,0.5,0.4,southwest,3.4,No
2012/12/15,02:30,1.1,0.8,1.1,1.0,1.0,0.5,0.4,west-southwest,2.5,No
2012/12/15,02:40,1.1,0.7,1.1,1.0,1.0,0.5,0.4,southwest,2.0,No
2012/12/15,02:50,1.1,0.7,1.1,1.0,1.0,0.5,0.4,south-southwest,3.2,No
2012/12/15,03:00,1.1,0.7,1.1,1.0,1.0,0.5,0.4,south-southeast,1.9,No
2012/12/15,03:10,1.1,0.8,1.1,1.0,1.0,0.5,0.4,south,2.3,No
2012/12/15,03:20,1.1,0.7,1.1,1.0,1.0,0.5,0.4,south,1.6,No
2012/12/15,03:30,1.1,0.7,1.1,1.0,1.0,0.5,0.4,south,1.7,No
2012/12/15,03:40,1.1,0.7,1.1,1.0,1.0,0.5,0.4,south,2.5,No
2012/12/15,03:50,1.1,0.7,1.1,1.0,1.0,0.5,0.4,south,2.8,No
2012/12/15,04:00,1.1,0.8,1.1,1.0,1.0,0.5,0.4,south,2.4,No
2012/12/15,04:10,1.1,0.8,1.1,1.0,1.0,0.5,0.4,south-southeast,3.9,No
2012/12/15,04:20,1.1,0.8,1.1,1.0,1.0,0.5,0.4,south-southeast,3.7,No
2012/12/15,04:30,1.1,0.7,1.1,1.0,1.0,0.5,0.4,south-southeast,3.6,No
2012/12/15,04:40,1.1,0.7,1.1,1.0,1.0,0.5,0.4,south-southeast,3.3,No
2012/12/15,04:50,1.1,0.7,1.1,1.0,1.0,0.5,0.4,south-southeast,2.8,No
2012/12/15,05:00,1.1,0.8,1.1,1.0,1.0,0.5,0.4,south,2.1,No
2012/12/15,05:10,1.1,0.8,1.1,1.0,1.0,0.5,0.4,south-southwest,1.9,No
2012/12/15,05:20,1.1,0.7,1.1,1.0,1.0,0.5,0.4,south-southwest,1.7,No
2012/12/15,05:30,1.1,0.7,1.1,1.0,1.0,0.5,0.4,south,3.6,No
2012/12/15,05:40,1.1,0.8,1.1,1.0,1.0,0.5,0.4,south-southwest,2.4,No
2012/12/15,05:50,1.1,0.8,1.1,1.0,1.0,0.5,0.4,south-southwest,1.1,No
2012/12/15,06:00,1.1,0.7,1.1,1.0,1.0,0.5,0.4,-,CALM,No
2012/12/15,06:10,1.1,0.8,1.1,1.0,1.0,0.5,0.4,south,1.1,Yes
2012/12/15,06:20,1.1,0.7,1.1,1.0,1.0,0.5,0.4,south-southwest,1.4,Yes
2012/12/15,06:30,1.1,0.8,1.1,1.0,1.0,0.5,0.4,south,1.9,Yes
2012/12/15,06:40,1.1,0.8,1.1,1.0,1.0,0.5,0.4,south-southwest,2.3,Yes
2012/12/15,06:50,1.1,0.8,1.1,1.0,1.0,0.5,0.4,west,0.8,Yes
2012/12/15,07:00,1.1,0.8,1.1,1.0,1.0,0.5,0.4,northwest,1.8,Yes
2012/12/15,07:10,1.1,0.8,1.1,1.0,1.0,0.5,0.4,west-northwest,3.9,Yes
2012/12/15,07:20,1.1,0.8,1.1,1.0,1.0,0.5,0.4,west-northwest,3.6,Yes
2012/12/15,07:30,1.1,0.7,1.1,1.0,1.0,0.5,0.4,west-northwest,3.7,Yes
2012/12/15,07:40,1.1,0.8,1.1,1.0,1.0,0.5,0.4,west,2.7,Yes
2012/12/15,07:50,1.1,0.7,1.1,1.0,1.0,0.5,0.4,southwest,1.8,Yes
2012/12/15,08:00,1.1,0.7,1.1,1.0,1.0,0.5,0.4,south-southwest,1.5,Yes
2012/12/15,08:10,1.1,0.7,1.1,1.0,1.0,0.5,0.4,southeast,1.5,Yes
2012/12/15,08:20,1.1,0.7,1.1,1.0,1.0,0.5,0.4,southeast,1.6,Yes
2012/12/15,08:30,1.1,0.8,1.1,1.0,1.0,0.5,0.4,east-southeast,3.0,Yes
2012/12/15,08:40,1.1,0.8,1.1,1.0,1.0,0.5,0.4,south-southeast,0.7,Yes
2012/12/15,08:50,1.1,0.7,1.1,1.0,1.0,0.5,0.4,east-southeast,1.1,Yes
2012/12/15,09:00,1.1,0.7,1.1,1.0,1.0,0.5,0.4,-,CALM,Yes
2012/12/15,09:10,1.1,0.7,1.1,1.0,1.0,0.5,0.4,-,CALM,No
2012/12/15,09:20,1.1,0.7,1.1,1.0,1.0,0.5,0.4,north,1.2,Yes
2012/12/15,09:30,1.1,0.7,1.1,1.0,1.0,0.5,0.4,north-northeast,6.5,Yes
2012/12/15,09:40,1.1,0.7,1.1,1.0,1.0,0.5,0.4,northeast,9.7,Yes
2012/12/15,09:50,1.1,0.7,1.1,1.0,1.0,0.5,0.4,north-northeast,1.9,Yes
2012/12/15,10:00,1.1,0.7,1.1,1.0,1.0,0.5,0.4,north-northeast,2.2,Yes
2012/12/15,10:10,1.1,0.7,1.1,1.0,1.0,0.5,0.4,north,2.1,Yes
2012/12/15,10:20,1.1,0.7,1.1,1.0,1.0,0.5,0.4,northeast,1.1,Yes
2012/12/15,10:30,1.1,0.7,1.1,1.0,1.0,0.5,0.4,north,2.6,Yes
2012/12/15,10:40,1.1,0.7,1.1,1.0,1.0,0.5,0.4,north,1.8,Yes
2012/12/15,10:50,1.1,0.7,1.1,1.0,1.0,0.5,0.4,north,1.2,Yes
2012/12/15,11:00,1.1,0.7,1.1,1.0,1.0,0.5,0.4,north,1.5,Yes
2012/12/15,11:10,1.1,0.7,1.1,1.0,1.0,0.5,0.4,north-northeast,1.4,Yes
2012/12/15,11:20,1.1,0.7,1.1,1.0,1.0,0.5,0.4,north,2.3,No
2012/12/15,11:30,1.1,0.7,1.1,1.0,1.0,0.5,0.4,north,1.8,No
2012/12/15,11:40,1.1,0.8,1.1,1.0,1.0,0.5,0.4,north,3.0,No
2012/12/15,11:50,1.1,0.7,1.1,1.0,1.0,0.5,0.4,north,2.6,No
2012/12/15,12:00,1.1,0.7,1.1,1.0,1.0,0.5,0.4,north-northwest,2.7,No
2012/12/15,12:10,1.1,0.7,1.1,1.0,1.0,0.5,0.4,north-northwest,3.5,No
2012/12/15,12:20,1.1,0.7,1.1,1.0,1.0,0.5,0.4,north-northwest,2.8,No
2012/12/15,12:30,1.1,0.7,1.1,1.0,1.0,0.5,0.4,north,2.4,No
2012/12/15,12:40,1.1,0.7,1.1,1.0,1.0,0.5,0.4,north,1.7,No
2012/12/15,12:50,1.1,0.7,1.1,1.0,1.0,0.5,0.4,north,2.3,No
2012/12/15,13:00,1.1,0.7,1.1,1.0,1.0,0.5,0.4,north-northwest,2.6,No
2012/12/15,13:10,1.1,0.7,1.1,1.0,1.0,0.5,0.4,north-northwest,1.5,No
2012/12/15,13:20,1.1,0.7,1.1,1.0,1.0,0.5,0.4,-,CALM,No
2012/12/15,13:30,1.1,0.7,1.1,1.0,1.0,0.5,0.4,-,CALM,No
2012/12/15,13:40,1.1,0.7,1.1,1.0,1.0,0.5,0.4,-,CALM,No
2012/12/15,13:50,1.1,0.8,1.1,1.0,1.0,0.5,0.4,-,CALM,No
2012/12/15,14:00,1.1,0.8,1.1,1.0,1.0,0.5,0.4,north-northeast,1.0,Yes
2012/12/15,14:10,1.1,0.7,1.1,1.0,1.0,0.5,0.4,north,1.4,No
2012/12/15,14:20,1.1,0.7,1.1,1.0,1.0,0.5,0.4,north,1.6,No
2012/12/15,14:30,1.1,0.7,1.1,1.0,1.0,0.5,0.4,north,1.9,No
2012/12/15,14:40,1.1,0.7,1.1,1.0,1.0,0.5,0.4,north-northeast,1.7,No
2012/12/15,14:50,1.1,0.7,1.1,1.0,1.0,0.5,0.4,north-northeast,0.9,No
2012/12/15,15:00,1.1,0.7,1.1,1.0,1.0,0.5,0.4,north-northeast,1.3,No
2012/12/15,15:10,1.1,0.8,1.1,1.0,1.0,0.5,0.4,north,1.5,No
2012/12/15,15:20,1.1,0.7,1.1,1.0,1.0,0.5,0.4,northwest,1.7,No
2012/12/15,15:30,1.1,0.7,1.1,1.0,1.0,0.5,0.4,northwest,1.1,No
2012/12/15,15:40,1.1,0.8,1.1,1.0,1.0,0.5,0.4,northwest,1.1,No
2012/12/15,15:50,1.1,0.7,1.1,1.0,1.0,0.5,0.4,northwest,1.0,No
2012/12/15,16:00,1.1,0.7,1.1,1.0,1.0,0.5,0.4,west-northwest,0.9,No
2012/12/15,16:10,1.1,0.7,1.1,1.0,1.0,0.5,0.4,west-northwest,1.0,No
2012/12/15,16:20,1.1,0.7,1.1,1.0,1.0,0.5,0.4,northwest,1.1,No
2012/12/15,16:30,1.1,0.7,1.1,1.0,1.0,0.5,0.4,northwest,1.4,No
2012/12/15,16:40,1.1,0.7,1.1,1.0,1.0,0.5,0.4,north-northwest,1.7,No
2012/12/15,16:50,1.1,0.7,1.1,1.0,1.0,0.5,0.4,north-northwest,2.0,No
2012/12/15,17:00,1.1,0.7,1.1,1.0,1.0,0.5,0.4,north,1.9,No
2012/12/15,17:10,1.1,0.8,1.1,1.0,1.0,0.5,0.4,north,1.7,No
2012/12/15,17:20,1.1,0.8,1.1,1.0,1.0,0.5,0.4,north,2.2,No
2012/12/15,17:30,1.1,0.7,1.1,1.0,1.0,0.5,0.4,north-northwest,2.5,No
2012/12/15,17:40,1.1,0.7,1.1,1.0,1.0,0.5,0.4,north-northwest,3.5,No
2012/12/15,17:50,1.1,0.7,1.1,1.0,1.0,0.5,0.4,north-northwest,3.8,No
2012/12/15,18:00,1.1,0.8,1.1,1.0,1.0,0.5,0.4,north-northwest,5.0,No
2012/12/15,18:10,1.1,0.8,1.1,1.0,1.0,0.5,0.4,north-northwest,5.5,No
2012/12/15,18:20,1.1,0.7,1.1,1.0,1.0,0.5,0.4,north-northwest,6.2,No
2012/12/15,18:30,1.1,0.7,1.1,1.0,1.0,0.5,0.4,north,5.1,No
2012/12/15,18:40,1.1,0.8,1.1,1.0,1.0,0.5,0.4,north,4.8,No
2012/12/15,18:50,1.1,0.7,1.1,1.0,1.0,0.5,0.4,north,4.7,No
2012/12/15,19:00,1.1,0.7,1.1,1.0,1.0,0.5,0.4,north,4.6,No
2012/12/15,19:10,1.1,0.7,1.1,1.0,1.0,0.5,0.4,north-northwest,4.3,No
2012/12/15,19:20,1.1,0.7,1.1,1.0,1.0,0.5,0.4,north-northwest,3.9,No
2012/12/15,19:30,1.1,0.7,1.1,1.0,1.0,0.5,0.4,north-northwest,4.3,No
2012/12/15,19:40,1.1,0.7,1.1,1.0,1.0,0.5,0.4,north,5.5,No
2012/12/15,19:50,1.1,0.7,1.1,1.0,1.0,0.5,0.4,north,4.6,No
2012/12/15,20:00,1.1,0.7,1.1,1.0,1.0,0.5,0.4,north,4.9,No
2012/12/15,20:10,1.1,0.7,1.1,1.0,1.0,0.5,0.4,north,4.6,No
2012/12/15,20:20,1.1,0.7,1.1,1.0,1.0,0.5,0.4,north-northwest,6.2,No
2012/12/15,20:30,1.1,0.7,1.1,1.0,1.0,0.5,0.4,north,4.7,No
2012/12/15,20:40,1.1,0.7,1.1,1.0,1.0,0.5,0.4,north,3.4,No
2012/12/15,20:50,1.1,0.7,1.1,1.0,1.0,0.5,0.4,north,3.0,No
2012/12/15,21:00,1.1,0.7,1.1,1.0,1.0,0.5,0.4,north,3.5,No
2012/12/15,21:10,1.1,0.7,1.1,1.0,1.0,0.5,0.4,north,2.9,No
2012/12/15,21:20,1.1,0.7,1.1,1.0,1.0,0.5,0.4,north,2.5,No
2012/12/15,21:30,1.1,0.7,1.1,1.0,1.0,0.5,0.4,north-northeast,2.5,No
2012/12/15,21:40,1.1,0.7,1.1,1.0,1.0,0.5,0.4,north,3.1,No
2012/12/15,21:50,1.1,0.7,1.1,1.0,1.0,0.5,0.4,north-northeast,3.4,No
2012/12/15,22:00,1.1,0.7,1.1,1.0,1.0,0.5,0.4,north-northeast,3.7,No
2012/12/15,22:10,1.1,0.7,1.1,1.0,1.0,0.5,0.4,northeast,4.2,No
2012/12/15,22:20,1.1,0.8,1.1,1.0,1.0,0.5,0.4,north,2.4,No
2012/12/15,22:30,1.1,0.7,1.1,1.0,1.0,0.5,0.4,northwest,3.3,No
2012/12/15,22:40,1.1,0.7,1.1,1.0,1.0,0.5,0.4,north-northwest,2.9,No
2012/12/15,22:50,1.1,0.7,1.1,1.0,1.0,0.5,0.4,north,1.1,No
2012/12/15,23:00,1.1,0.7,1.1,1.0,1.0,0.5,0.4,north-northeast,2.2,No
2012/12/15,23:10,1.1,0.7,1.1,1.0,1.0,0.5,0.4,north-northeast,2.8,No
2012/12/15,23:20,1.1,0.8,1.1,1.0,1.0,0.5,0.4,northeast,2.6,No
2012/12/15,23:30,1.1,0.8,1.1,1.0,1.0,0.5,0.4,east-northeast,2.6,No
2012/12/15,23:40,1.1,0.8,1.1,1.0,1.0,0.5,0.4,east,1.4,No
2012/12/15,23:50,1.1,0.8,1.1,1.0,1.0,0.5,0.4,east,1.7,No
